Weather in Mirnoe

Russia / Republic of Crimea     44°58′46″N   34°03′56″E
temp.,
°C
wind,
m/s
gust,
m/s
humid.,
%
clouds,
%
prec.,
mm/h
press.,
hPa
HPBL,
m
11 may, tue
tue1100:00+9ssw3471100 0.0 1021114
03:00+8sw358269 0.0 1020129
06:00+6ssw339299 0.0 101847
09:00+10wsw4772100 0.0 1017427
12:00+12w4667100 0.0 1016893
15:00+11wsw3578100 0.1 1016495
18:00+12sw3579100 0.1 1015344
21:00+11sw1290100 0.1 101548
12 may, wed
wed1200:00+10e119262 0.0 101412
03:00+7ene229884 0.0 101333
06:00+7ene349529 0.0 1014145
09:00+12ne326911 0.0 1013680
12:00+16nw334650 0.0 10121459
15:00+18w544051 0.0 10121605
18:00+16w324717 0.0 1012603
21:00+9s11715 0.0 101310
13 may, thu
thu1300:00+9se22735 0.0 101311
03:00+8ese228325 0.0 101210
06:00+9e227760 0.0 101233
09:00+18e3451100 0.0 1011483
12:00+22se1339100 0.0 10101366
15:00+23w4242100 0.0 1009857
18:00+18w336070 0.0 1010300
21:00+12sse117993 0.0 101011
14 may, fri
fri1400:00+11ssw22660 0.0 101112
03:00+11sse22640 0.0 101010
06:00+12ese11520 0.0 101110
09:00+20n1040100 0.0 1010252
12:00+24nw113536 0.0 1011859
15:00+24w533934 0.0 1011890
18:00+19wsw34531 0.0 1011250
21:00+14sw33670 0.0 101237
15 may, sat
sat1500:00+12ssw36710 0.0 1013100
03:00+11ssw47875 0.0 1014128
06:00+12s46894 0.0 1015122
09:00+19sw5762100 0.0 1015680
12:00+22wsw67525 0.0 10161384
15:00+22w664991 0.0 10141017
18:00
21:00+14s2280100 0.0 101611